RH
22 28 32 30 27 22 19 18 18 17 15 15 13 12 11 9 9 6 5 6 5 12 14 15 41 59 57 54 45 41 44 46 49 50 51 49 47 51 51 47 45 45 46 44 43 42 42 44 42 43 45 43 43 42 40 43 45 49 57 62 63 64 62 62 62 61 59 58 61 60 56 56 54 52 52 53 59 62 63 68 62 57 63 61 60 66
21 29 30 25 22 19 17 17 15 16 15 14 14 13 12 11 9 7 6 6 4 10 14 13 33 54 53 48 44 40 43 47 49 50 51 49 49 55 56 56 53 44 42 44 45 42 41 44 43 43 45 44 44 42 40 42 44 49 57 60 61 61 61 60 60 60 58 58 59 57 54 54 52 51 51 52 57 58 58 66 63 57 63 62 59 62
24 26 23 19 19 18 17 16 14 14 13 12 13 12 13 12 9 8 6 6 5 7 14 13 22 44 50 46 43 41 42 45 47 49 50 50 52 57 57 62 62 50 44 44 44 43 40 41 43 43 44 45 45 43 40 42 44 49 57 59 59 60 60 60 61 60 59 58 57 56 53 51 51 51 49 50 55 57 58 63 61 60 66 64 60 60
26 23 17 16 16 17 17 16 14 14 13 12 13 13 14 11 9 10 7 7 6 5 11 12 17 35 45 45 42 38 40 43 46 47 47 50 55 57 55 59 64 59 53 48 42 41 41 41 43 44 44 45 48 46 41 43 46 50 57 59 58 60 61 62 62 61 61 58 56 57 53 48 50 51 47 49 56 58 60 64 64 66 70 67 63 62
21 17 14 15 15 16 17 16 15 14 15 13 12 13 12 10 9 9 8 7 6 6 8 10 22 40 45 45 44 38 38 44 47 47 48 52 54 56 56 59 65 64 60 54 44 41 41 42 44 44 44 45 49 48 41 43 48 49 56 59 57 60 63 64 63 63 63 60 57 57 52 47 49 50 47 53 62 62 64 69 70 72 73 69 65 65
16 12 12 14 15 15 16 16 15 14 16 14 12 12 10 10 9 8 9 8 10 13 10 7 19 39 46 45 45 42 41 46 50 49 51 56 57 59 60 61 66 69 69 64 51 42 41 41 43 44 44 45 50 50 40 41 47 48 55 58 56 60 65 65 65 67 66 60 57 56 53 51 51 51 48 53 64 66 67 69 70 74 76 73 70 69
14 11 10 12 14 15 15 16 15 13 16 16 13 11 10 10 10 9 9 10 14 15 11 7 12 33 50 47 41 42 44 46 48 51 55 60 62 62 62 62 64 67 73 75 63 49 43 40 41 45 44 45 50 51 43 44 47 47 53 58 57 59 65 67 66 68 67 59 55 55 54 52 50 52 49 48 57 62 65 67 67 73 76 74 76 75
13 12 12 11 12 14 15 16 14 12 16 16 12 10 11 10 10 10 10 11 13 11 11 10 9 28 49 47 40 41 46 49 49 53 60 63 63 61 60 61 62 62 66 72 67 56 48 41 40 45 45 44 49 51 48 48 48 46 51 57 58 59 63 68 66 65 65 59 54 52 53 52 48 50 49 45 49 55 62 66 65 69 73 71 75 75
11 13 13 12 13 14 14 14 13 12 14 14 11 10 11 10 10 10 10 11 11 11 18 16 8 19 34 36 40 44 48 55 55 54 59 62 60 59 59 58 61 61 60 61 60 56 52 44 40 43 44 44 47 51 51 51 49 46 50 57 59 60 63 67 65 62 61 58 51 50 52 52 48 47 48 44 45 48 55 63 64 65 69 70 73 74
10 12 11 12 13 13 12 11 10 11 12 11 10 10 9 10 10 10 12 15 14 15 22 18 8 16 25 28 40 49 51 54 54 52 54 57 58 58 57 56 58 60 58 57 56 54 52 44 39 42 44 44 46 50 52 52 51 49 52 57 60 62 63 66 66 61 59 55 49 50 52 51 49 47 45 44 46 44 45 57 63 63 66 69 69 72
9 9 10 11 12 12 11 11 10 10 10 10 10 11 11 11 13 14 17 20 23 26 23 14 7 12 21 25 31 40 45 46 47 49 51 53 56 58 57 54 55 57 56 55 53 51 49 42 39 41 44 44 45 49 53 54 53 52 55 58 60 63 64 66 65 61 59 56 48 48 50 50 50 47 42 44 49 46 42 49 59 59 60 64 64 67
7 8 9 9 10 10 11 11 10 9 9 10 10 12 15 17 16 17 20 21 26 32 25 14 8 9 17 22 21 21 28 38 42 43 48 54 55 56 56 53 51 53 53 53 51 48 45 42 40 41 44 45 45 48 53 55 55 55 57 59 61 64 65 66 66 61 60 57 49 46 48 48 49 48 43 42 48 49 43 44 53 55 57 61 62 64
6 6 7 8 9 9 12 13 12 10 9 11 13 16 21 24 21 21 25 24 26 31 23 13 12 11 13 17 14 10 14 29 38 37 42 51 53 52 53 52 50 51 51 50 49 45 42 42 41 41 44 46 46 49 52 54 56 57 59 61 62 64 65 67 66 61 60 59 52 46 47 47 49 51 46 41 45 48 44 43 48 53 58 61 62 64
11 7 5 7 8 8 12 14 15 14 12 13 14 18 24 25 24 27 27 25 26 26 18 12 15 16 14 12 10 7 6 16 31 34 37 46 49 49 50 50 48 48 48 48 48 45 43 42 41 41 44 47 47 49 51 53 56 58 60 61 63 64 65 68 68 62 59 60 55 48 47 47 49 53 51 44 43 46 44 43 44 48 55 60 62 63
20 17 10 7 8 9 11 12 14 13 13 14 12 15 22 22 22 27 26 25 28 26 18 14 17 19 18 15 9 7 6 7 18 30 37 42 44 45 48 49 48 47 46 46 46 45 44 43 42 40 43 47 48 48 50 52 55 58 61 62 62 64 65 67 69 65 59 59 58 52 49 49 50 52 54 49 44 43 42 42 43 43 49 56 59 60
20 20 12 10 9 7 8 9 9 11 14 15 11 13 19 17 18 22 24 22 22 24 22 19 19 17 16 16 9 6 8 5 8 23 37 41 40 43 47 48 47 45 44 45 45 46 45 43 43 41 42 45 47 48 50 51 54 57 61 63 63 63 64 66 69 67 60 58 59 56 52 52 51 51 53 52 47 43 39 39 42 44 45 49 53 55
21 21 12 11 11 7 9 9 8 11 15 15 14 17 15 11 12 19 24 21 18 24 25 20 20 17 13 14 9 6 9 6 4 14 32 41 39 43 48 46 45 45 43 44 44 45 45 43 43 42 42 44 47 48 48 49 52 55 59 64 64 63 63 64 67 68 64 59 59 59 55 54 54 51 50 50 48 45 42 38 39 42 45 48 50 52
20 22 14 11 12 9 9 9 8 9 11 13 15 15 13 12 11 16 23 24 25 29 24 18 20 20 19 19 12 7 8 8 6 7 23 41 41 42 46 44 43 44 42 42 43 44 44 43 44 44 43 44 46 48 48 48 50 53 57 62 64 65 64 62 63 67 66 62 59 60 58 55 54 52 49 47 46 46 46 43 39 39 43 47 50 51
16 22 18 11 12 11 8 10 12 10 9 12 13 10 14 21 21 22 25 24 27 30 25 21 20 17 21 21 12 9 8 8 9 5 15 38 44 41 43 44 42 42 40 40 42 44 45 44 45 44 44 45 47 48 47 47 49 51 55 60 63 64 64 62 61 63 65 64 61 60 59 57 54 52 49 46 44 45 47 48 45 43 41 43 49 51
15 22 23 13 9 10 10 12 14 13 10 10 11 10 13 19 22 24 23 20 26 30 27 26 24 20 20 17 11 11 10 8 11 8 10 29 43 41 39 40 40 38 39 40 42 43 45 45 45 45 45 46 47 49 48 47 49 50 53 59 63 64 65 64 62 61 63 63 62 60 59 58 55 52 49 46 43 43 44 47 49 50 48 45 47 51
17 20 25 19 13 13 13 13 13 15 14 14 15 15 14 15 16 19 19 17 21 27 27 27 28 24 18 13 11 13 14 8 9 13 11 14 31 39 36 36 37 36 38 40 41 43 43 45 46 46 46 46 46 48 48 47 48 49 51 56 62 64 66 66 63 61 62 62 62 60 59 59 56 53 50 47 45 42 41 42 46 49 52 52 50 49
27 26 29 28 24 21 16 12 12 13 13 14 15 15 16 16 17 21 26 22 17 21 25 26 28 24 15 12 14 20 26 17 6 14 17 10 21 35 34 32 35 36 38 37 38 41 42 44 46 46 45 45 46 48 49 48 47 48 49 53 60 64 66 66 65 63 62 62 62 60 58 58 56 54 51 48 46 44 41 40 41 43 49 54 54 52
29 31 34 34 28 23 18 14 14 14 12 11 12 12 12 13 14 21 30 30 23 20 22 25 26 19 12 13 19 29 40 31 11 10 15 10 18 32 32 31 35 35 35 35 35 37 40 42 45 47 46 45 44 47 48 48 47 47 47 51 58 64 65 66 66 64 63 63 63 61 58 56 56 55 53 51 47 45 43 41 39 40 44 48 51 55
28 32 39 42 34 24 19 14 13 12 10 12 13 12 13 14 14 18 26 28 25 23 25 31 31 20 13 19 30 38 43 41 30 21 16 11 15 25 29 31 35 36 35 34 34 36 38 41 45 46 46 46 45 47 48 49 48 47 46 49 55 61 64 66 66 65 65 64 64 63 60 57 56 54 53 52 49 46 45 43 41 40 42 45 47 51
30 38 44 51 51 41 30 26 28 26 21 20 20 18 20 20 19 23 27 28 32 33 32 36 37 27 21 25 36 44 46 47 49 42 32 27 26 30 33 32 33 36 36 34 35 37 39 42 46 47 48 48 48 49 50 50 50 49 47 48 52 59 63 66 67 67 66 67 66 65 62 58 57 55 53 52 50 48 46 45 44 43 42 45 49 50
30 40 42 51 62 58 47 47 50 44 33 28 25 22 22 21 21 27 33 38 47 48 41 41 43 37 28 24 32 46 50 51 53 49 42 39 38 40 42 40 36 35 36 35 35 38 42 44 45 47 49 49 48 51 53 53 52 51 50 50 51 57 63 66 68 68 68 68 68 67 65 62 59 56 54 52 50 48 47 47 47 47 46 46 50 52
32 38 39 46 56 53 48 47 42 35 32 29 24 21 20 20 21 27 36 43 48 49 45 44 47 43 32 26 36 49 52 53 55 53 49 44 40 42 44 44 43 41 42 41 38 37 40 42 45 47 49 48 46 50 54 55 54 52 52 52 52 55 61 64 66 67 68 69 69 68 67 64 62 60 56 53 52 49 49 49 48 49 50 50 51 54
39 42 38 39 41 36 34 32 26 25 27 25 23 20 19 19 20 24 33 36 37 45 49 47 47 43 30 29 45 54 51 56 61 55 51 48 43 43 45 45 46 47 47 50 50 48 44 42 43 47 48 47 46 49 54 54 54 54 53 53 53 54 59 62 64 65 66 67 69 69 68 65 64 62 59 56 54 52 51 50 50 51 52 53 54 55
42 45 36 32 34 30 27 25 22 23 22 20 20 19 18 19 18 21 26 25 27 39 44 42 42 38 33 41 56 57 51 58 65 57 49 48 45 44 46 47 48 50 50 52 56 59 58 55 53 51 49 45 44 47 52 53 53 53 53 52 53 54 55 58 61 64 65 66 67 68 67 66 64 63 62 59 56 54 53 52 50 51 53 55 55 55
45 49 38 33 37 33 29 27 23 22 22 20 19 18 19 20 17 17 20 18 22 28 27 30 34 34 45 61 64 57 53 59 67 61 50 49 49 47 48 50 50 52 53 53 55 58 60 63 65 65 62 57 50 46 48 51 51 52 52 51 51 53 55 56 59 62 63 64 67 68 67 65 65 65 63 61 59 56 55 54 52 51 53 56 56 56
47 51 39 37 45 42 34 29 25 25 25 21 20 20 20 21 18 16 17 18 22 26 23 26 33 37 54 72 68 56 54 63 72 67 56 52 51 50 50 52 52 52 53 54 55 57 59 60 62 67 70 70 64 54 49 49 50 49 50 50 49 50 51 52 56 61 63 63 65 67 68 65 64 65 64 63 61 59 56 55 54 53 54 57 58 58
50 52 41 42 56 52 37 32 29 26 24 24 24 23 19 19 19 16 17 19 22 26 26 26 36 49 60 72 72 59 53 65 76 73 64 56 51 51 52 52 53 53 54 54 55 58 61 62 62 62 64 69 69 63 59 57 54 49 47 48 49 51 53 52 52 55 59 62 64 66 67 66 65 64 64 64 63 61 58 56 55 55 56 58 60 60
48 53 49 52 65 59 41 37 36 33 37 36 25 21 22 22 22 20 18 20 20 23 27 30 44 61 65 68 73 65 59 67 73 75 77 69 56 52 52 52 51 52 52 54 56 57 59 63 67 64 61 63 65 63 62 61 59 56 52 53 55 58 62 65 63 60 58 58 62 65 65 65 65 65 64 64 64 63 60 58 57 56 56 58 60 60
45 51 52 57 72 68 47 41 46 52 58 42 21 28 41 40 43 46 39 35 37 39 44 47 53 61 62 62 67 64 61 63 61 64 74 74 62 53 52 53 52 51 50 51 54 57 56 60 69 71 67 67 67 64 62 57 54 54 54 54 55 56 57 62 69 73 68 60 59 63 65 64 64 65 65 64 65 64 62 59 58 57 56 58 60 61
47 51 54 56 65 64 51 52 67 73 60 31 21 43 55 46 50 58 49 47 57 61 61 62 59 57 57 58 57 56 56 55 52 52 57 62 60 54 51 53 53 51 52 52 53 56 57 59 64 68 71 73 71 68 68 63 55 53 52 51 52 53 53 55 60 65 67 63 59 61 64 64 64 64 65 65 65 65 64 61 58 58 57 57 59 61
49 57 61 60 59 60 60 66 76 70 44 23 33 57 60 51 57 67 64 64 69 69 67 68 63 56 55 55 53 53 52 50 53 53 48 50 56 54 50 51 50 50 52 53 53 54 57 61 63 64 68 71 69 67 69 69 65 62 58 50 48 50 53 56 59 61 62 62 60 60 62 63 63 64 64 65 66 66 65 63 60 58 58 57 57 60
66 72 69 65 62 62 64 64 61 54 41 41 58 71 67 61 64 75 82 79 72 69 69 70 66 59 57 56 54 53 51 51 60 61 51 47 51 54 53 49 46 48 51 52 53 54 57 61 63 64 66 67 66 64 63 65 67 66 61 53 50 51 54 57 61 61 60 59 58 59 62 62 62 64 64 65 66 66 66 64 61 59 58 57 57 59
71 76 73 73 69 61 63 68 65 59 59 67 77 74 65 59 57 64 78 83 78 72 67 68 68 63 59 59 58 56 56 63 73 70 55 49 49 53 59 55 45 46 51 53 54 57 59 61 63 65 67 66 66 66 64 64 67 68 65 61 57 55 53 54 56 56 55 56 56 58 60 61 61 63 64 64 65 65 66 65 63 60 58 58 57 57
63 73 79 83 78 65 64 72 68 62 71 83 83 70 57 54 56 62 74 83 84 76 67 68 71 67 63 62 60 61 67 78 83 72 56 51 50 53 65 65 52 46 50 53 56 59 61 63 65 66 67 67 68 69 69 68 69 68 68 67 65 59 50 47 49 49 50 52 55 57 58 60 61 62 63 64 64 64 65 65 64 62 59 58 57 55
71 83 89 90 85 75 72 71 63 65 80 84 78 69 56 50 60 73 83 88 86 77 68 68 71 68 67 66 63 67 76 81 79 67 54 52 53 55 66 72 62 51 49 53 57 61 62 64 66 68 68 69 71 72 71 69 68 68 67 67 69 67 56 46 43 44 46 49 52 56 58 60 61 61 62 63 64 64 64 64 64 63 61 59 58 55
79 87 90 88 85 80 79 75 67 73 85 79 74 76 65 56 68 85 91 91 87 77 66 63 66 67 66 68 68 71 73 69 65 60 53 53 57 60 65 70 65 55 51 54 57 59 62 65 68 71 71 71 73 74 72 70 69 70 71 70 71 72 67 55 44 40 43 49 52 55 58 60 61 61 61 63 64 64 64 64 65 64 62 61 59 56
90 92 89 87 86 83 81 76 69 74 82 76 71 71 66 69 84 91 88 84 80 72 64 61 63 64 65 67 69 68 66 61 59 58 54 54 60 62 62 68 70 63 57 56 57 59 64 69 72 73 73 73 74 74 74 74 73 74 76 77 77 76 75 67 53 41 40 47 52 55 58 60 61 62 62 63 64 65 65 64 65 65 63 62 60 57
96 97 93 91 92 88 82 76 74 81 84 76 70 68 70 80 88 84 78 75 69 65 65 63 62 62 63 65 65 64 64 63 62 60 57 56 58 59 61 69 73 69 62 59 59 61 67 72 73 73 73 73 75 76 77 78 78 78 80 81 80 80 80 76 63 47 39 43 50 53 57 61 63 63 64 64 65 66 66 66 65 66 65 63 61 60
94 95 95 95 95 94 92 85 86 92 89 79 77 79 76 75 73 69 69 69 64 64 66 66 64 61 60 62 63 64 65 66 65 62 60 58 57 58 65 69 69 68 66 64 63 65 70 74 73 74 74 74 76 79 80 81 82 82 83 83 83 83 84 81 69 51 40 42 48 52 56 60 63 64 64 65 67 68 68 68 68 67 67 65 63 62
88 84 87 93 93 93 94 91 91 93 82 69 71 77 73 67 63 62 63 64 64 63 63 65 65 61 59 60 62 64 66 67 66 64 62 61 58 59 66 70 68 68 70 68 66 69 74 76 75 75 76 76 77 79 81 83 85 85 85 85 85 86 87 86 74 53 41 43 49 52 56 60 63 65 66 66 69 70 70 71 71 70 70 69 66 65
72 71 79 87 86 82 82 83 84 81 69 58 61 67 66 62 59 58 61 63 63 62 61 62 63 60 58 60 61 64 65 65 65 65 63 63 62 60 64 70 71 70 72 72 71 73 77 79 78 77 78 79 80 81 82 84 87 87 88 89 89 89 91 89 77 56 43 46 50 52 57 62 65 67 68 68 70 72 72 72 74 74 74 73 70 68
71 76 82 82 80 82 83 79 74 70 64 61 62 61 59 58 57 58 61 63 62 61 61 60 59 58 58 59 60 63 63 61 64 67 66 67 68 65 66 72 73 72 74 75 73 75 80 82 81 79 80 81 83 83 83 86 89 90 91 92 93 91 89 85 74 58 48 51 54 55 58 63 66 69 70 71 72 74 74 74 74 76 77 76 74 72
74 81 86 80 79 83 81 71 64 64 62 62 63 61 59 59 58 57 60 60 59 60 60 57 57 58 58 58 59 61 61 60 62 66 68 69 70 68 68 71 72 73 74 74 74 77 83 85 83 81 82 84 85 84 85 88 91 93 92 93 93 90 82 76 68 57 52 55 58 59 61 63 67 70 72 73 74 75 76 77 76 76 78 77 76 74
71 81 82 75 75 78 74 69 70 70 65 62 64 63 60 61 62 60 60 59 58 59 61 60 59 58 57 58 59 60 62 62 62 65 68 70 70 70 71 70 70 72 74 73 75 80 85 85 84 84 86 88 87 86 88 91 93 94 93 92 91 86 79 73 66 57 55 58 59 61 63 65 68 72 72 73 74 75 76 77 76 76 77 76 76 75
68 76 71 70 79 83 77 74 79 84 82 75 67 63 62 64 67 66 64 64 63 62 63 65 64 60 57 57 57 60 64 65 63 64 69 71 71 70 70 69 69 72 73 72 77 84 85 85 86 87 88 89 88 89 92 94 94 96 95 93 92 87 79 74 70 62 59 61 62 63 65 67 69 71 72 73 74 75 77 78 77 76 76 76 76 75
59 62 61 71 84 81 71 66 72 83 87 77 66 66 68 67 68 69 68 68 68 65 63 65 68 67 64 60 58 60 64 65 64 65 68 70 69 68 68 68 69 72 73 75 82 87 85 85 89 90 89 90 90 91 94 95 95 96 97 96 97 94 83 75 72 70 66 65 65 65 66 68 71 72 74 73 73 74 78 80 80 78 77 76 76 76
Wind_Speed
5 3 4 5 5 7 8 9 10 11 12 13 9 7 8 7 6 8 10 10 8 10 11 13 17 16 16 17 17 17 16 13 14 13 12 12 10 9 11 10 11 13 13 18 21 21 26 27 24 26 28 32 31 31 34 31 31 32 32 34 34 31 29 29 29 27 27 26 24 25 25 21 19 20 20 19 21 21 19 16 14 16 15 15 15 13
5 5 6 7 8 9 9 10 11 12 13 12 9 7 8 8 8 7 6 9 8 7 9 13 18 19 20 20 18 17 17 16 16 15 13 14 12 8 9 10 10 12 12 16 19 20 25 28 27 27 27 31 31 32 35 32 32 32 32 35 34 32 31 30 31 28 27 27 26 26 26 23 22 21 19 20 22 20 18 17 15 15 15 14 14 13
5 5 7 8 9 10 10 10 10 11 11 9 6 6 6 6 8 9 10 9 5 3 7 13 14 18 23 21 20 21 19 16 17 17 15 14 13 10 10 9 8 11 12 15 18 19 24 27 28 27 27 31 31 34 36 31 31 32 32 36 35 32 32 31 31 29 27 26 25 25 25 25 22 19 19 19 20 20 18 17 16 16 15 15 15 13
4 6 10 11 10 10 10 11 10 9 8 6 5 4 5 7 7 5 8 10 6 3 5 11 9 12 18 17 18 21 18 15 17 18 15 14 13 12 13 10 8 10 11 13 16 17 22 25 26 26 26 29 30 33 35 31 31 32 32 36 36 33 33 33 32 29 28 27 25 22 23 25 19 17 19 18 19 21 18 18 17 16 15 14 15 14
6 7 12 14 12 11 10 10 10 7 5 6 7 6 5 8 9 7 7 9 9 8 3 5 5 6 13 14 14 14 14 14 16 17 15 14 13 12 13 11 10 10 10 11 14 16 18 21 25 27 27 28 30 33 36 33 31 32 33 37 37 35 34 34 33 30 28 28 25 21 23 23 18 17 19 17 21 23 20 19 19 17 15 14 15 15
9 9 10 12 13 12 10 8 8 7 4 5 6 8 8 9 12 11 10 9 6 6 4 3 3 3 10 16 14 12 13 14 16 17 17 15 14 13 13 12 11 10 9 9 12 15 18 21 25 29 29 29 30 33 36 34 32 31 34 37 37 36 34 34 34 31 29 29 27 26 27 25 21 21 21 19 24 25 21 20 20 19 16 15 15 14
7 9 10 10 11 12 11 8 8 7 5 4 5 7 10 9 10 11 11 7 3 5 6 2 3 3 6 12 14 14 15 15 15 16 15 14 14 13 13 13 12 11 10 8 9 12 16 21 24 26 30 31 29 33 36 34 32 32 34 37 37 36 35 35 35 32 30 31 30 29 29 28 27 26 24 22 23 23 21 19 19 20 18 16 16 14
6 10 10 11 9 8 8 7 8 9 5 3 5 8 8 7 9 10 9 5 3 5 8 6 1 4 5 10 14 16 15 13 14 15 15 14 15 15 14 15 15 14 13 10 9 10 12 19 24 26 30 32 31 34 36 34 33 33 35 37 37 37 35 35 36 33 32 32 32 31 28 28 31 29 26 25 22 21 22 21 20 20 19 17 17 16
6 6 6 9 8 5 5 6 8 10 7 4 6 9 8 7 8 7 6 4 3 4 6 7 4 1 3 8 14 16 14 13 14 16 17 17 18 17 16 17 16 16 15 13 13 12 11 17 25 29 31 32 32 34 36 35 35 34 36 38 37 37 36 35 36 35 33 34 34 31 26 27 32 30 28 26 23 22 22 22 22 19 18 18 18 17
6 4 4 6 6 5 6 6 5 7 6 5 9 10 8 7 7 5 1 1 0 2 5 7 4 2 3 4 11 13 12 13 14 15 17 18 19 18 17 17 16 15 15 14 14 14 14 19 26 30 32 33 32 34 36 35 35 34 36 38 37 37 37 36 37 36 35 35 36 32 26 26 30 30 29 26 24 24 22 22 24 21 19 19 19 18
8 9 7 4 4 4 6 6 7 7 4 3 7 7 6 5 5 5 2 4 4 1 5 7 7 4 4 3 6 10 14 18 16 14 14 15 17 17 16 16 17 15 14 14 14 15 18 22 27 30 31 33 32 33 35 34 35 35 36 39 39 38 38 37 38 37 35 36 37 35 28 26 29 30 31 28 24 26 25 23 25 23 21 20 19 19
8 7 5 4 5 4 4 4 5 7 5 4 2 1 2 4 3 4 2 4 2 3 4 6 8 7 5 4 4 5 13 21 19 16 17 19 19 19 17 16 17 16 15 15 15 15 16 18 23 28 29 32 33 33 35 35 35 36 36 39 39 38 38 38 39 39 36 36 38 37 32 28 28 30 33 31 25 27 27 24 25 25 23 22 20 20
7 5 3 4 5 3 4 4 2 4 4 2 3 4 2 2 1 2 1 1 2 4 5 6 7 7 5 6 8 10 7 17 21 19 21 23 22 20 19 18 16 16 16 16 15 14 15 14 17 23 27 31 32 32 36 36 36 36 37 39 40 39 39 38 40 41 38 37 38 39 35 31 30 30 33 34 28 27 28 26 26 26 26 26 23 21
4 5 6 5 4 3 3 2 1 2 4 4 1 2 2 1 1 2 2 2 3 4 7 10 8 5 4 5 10 15 14 11 19 21 20 22 24 22 21 20 17 17 17 16 15 15 14 14 17 23 28 31 32 33 36 37 36 36 37 40 41 40 40 39 40 42 40 38 39 40 38 34 32 31 32 35 32 28 27 27 27 26 25 27 25 22
3 3 3 2 1 6 6 6 4 4 3 5 4 4 4 3 3 3 2 3 4 4 7 11 8 4 4 6 10 15 17 13 11 18 21 20 22 21 19 19 18 17 17 15 16 17 16 16 20 25 27 30 32 34 36 37 37 37 37 40 42 40 40 39 40 42 42 40 39 40 40 37 35 34 32 34 34 31 29 28 28 27 26 27 26 24
5 3 4 11 8 4 7 7 6 5 4 1 3 4 4 3 2 2 4 4 3 3 3 6 4 3 6 7 10 13 14 16 12 14 23 21 19 19 16 18 18 17 18 17 16 17 18 18 21 25 27 29 32 33 35 36 38 37 38 41 43 42 42 41 41 42 44 43 40 40 41 39 37 36 34 34 35 34 32 30 29 29 29 28 27 25
4 5 8 14 12 4 4 4 7 6 3 2 1 3 5 5 3 1 3 6 4 3 2 3 4 4 5 6 8 9 12 17 16 11 20 21 19 19 18 18 19 18 18 18 17 18 18 19 21 26 28 29 32 34 35 37 39 40 39 41 43 43 43 42 42 42 43 43 41 41 42 40 39 38 37 35 34 33 33 33 32 31 30 29 28 26
5 7 9 10 12 13 15 13 2 9 5 2 1 4 3 4 4 0 0 3 3 2 2 3 6 4 3 4 8 10 11 14 14 10 14 20 20 20 19 19 21 21 20 20 19 18 18 18 21 26 29 31 35 37 38 38 39 40 40 42 43 42 43 43 42 41 41 42 42 42 42 42 41 40 40 38 36 33 33 33 34 33 31 29 28 27
5 5 6 6 11 15 15 13 5 4 5 4 3 5 1 2 2 2 0 2 1 2 3 4 7 5 3 4 7 12 12 10 12 11 12 20 22 19 18 20 22 21 19 18 17 16 16 17 22 27 30 32 35 38 40 39 38 39 39 41 44 44 44 44 42 41 40 41 42 42 43 44 43 42 41 39 38 35 33 33 33 33 33 31 29 27
4 2 4 5 12 14 10 6 4 2 1 2 5 5 2 3 2 1 2 2 1 2 3 3 5 5 4 4 5 9 11 10 11 11 12 20 23 20 17 18 19 19 17 16 16 17 17 18 24 30 32 33 35 36 38 38 37 38 38 39 42 43 42 42 42 41 41 41 41 40 41 43 43 42 41 40 39 38 36 35 34 33 33 32 31 29
4 2 4 7 11 10 5 3 6 8 7 6 6 5 3 1 1 1 2 2 2 3 2 3 4 5 6 5 3 5 7 11 13 8 9 15 20 22 21 19 18 17 17 17 17 17 18 19 24 31 34 34 35 35 37 37 37 37 37 37 40 41 41 41 42 42 41 41 41 40 41 42 43 42 42 40 40 40 40 38 36 35 33 32 32 32
4 2 4 7 7 5 7 11 14 13 10 6 4 5 4 4 3 3 3 3 3 1 2 3 3 6 7 3 6 11 12 8 11 9 5 8 16 23 22 20 20 19 17 18 18 18 19 17 21 28 31 32 32 32 34 36 36 36 36 36 38 39 41 42 42 42 42 42 41 41 41 42 43 42 42 41 40 41 41 40 39 37 35 34 33 33
5 2 3 6 6 7 11 16 17 15 12 10 7 5 5 4 3 3 3 3 2 2 3 1 2 7 7 7 11 12 18 16 5 8 6 5 12 22 24 23 23 21 19 19 18 18 17 17 21 26 28 30 31 32 34 35 36 36 36 36 37 38 41 42 42 43 42 41 42 42 42 41 42 43 42 42 41 41 42 42 41 40 37 36 35 33
6 2 3 5 6 8 10 11 12 10 8 8 7 6 6 7 6 4 3 3 2 1 2 1 1 7 4 11 13 13 20 20 12 6 4 3 3 14 20 21 22 20 20 20 18 17 16 16 19 21 23 27 29 30 33 34 35 36 35 35 37 39 41 41 41 41 41 42 42 42 41 41 42 43 43 42 42 42 42 41 41 40 39 38 36 35
4 3 4 4 5 6 6 5 6 7 8 6 7 10 10 12 12 7 5 6 4 3 5 3 3 6 5 13 16 16 18 16 16 19 15 11 11 7 2 7 17 21 19 19 17 16 16 16 16 16 18 24 26 29 32 33 34 36 35 35 36 39 40 40 39 39 40 41 41 40 41 42 42 42 44 44 43 42 42 41 40 40 40 38 37 36
1 2 2 2 2 3 4 3 2 6 8 6 9 15 14 14 15 9 5 4 4 5 6 2 4 6 11 16 16 16 16 14 16 19 18 17 18 16 15 9 8 16 17 20 21 17 15 15 15 15 18 23 26 28 31 32 34 36 36 35 35 36 38 39 38 38 38 39 40 40 41 42 42 43 45 45 44 42 42 41 39 39 39 39 38 36
1 2 2 2 3 5 6 7 7 8 9 9 13 18 16 13 12 7 3 2 4 7 4 1 3 10 13 15 15 14 14 14 14 15 16 16 17 17 17 16 12 7 5 7 13 17 18 17 17 17 19 24 28 30 31 33 34 36 36 37 36 35 36 37 38 37 37 37 38 40 41 42 43 43 44 45 44 43 42 41 40 39 40 40 39 37
1 3 4 5 7 8 9 14 15 12 11 12 14 16 16 14 11 7 4 4 5 7 5 2 7 11 11 11 11 11 12 12 12 14 14 14 15 15 16 18 19 18 17 14 8 2 12 16 18 19 19 23 27 28 30 33 35 37 37 38 37 35 35 36 36 37 37 36 37 38 40 42 43 43 43 44 44 43 42 42 41 40 40 40 40 39
1 3 5 8 10 11 11 14 16 14 12 13 13 14 16 16 14 9 8 7 5 5 7 7 10 11 10 9 9 9 10 11 11 12 13 15 15 16 17 19 20 20 19 18 18 15 8 2 5 10 14 20 25 27 28 30 32 34 35 36 36 35 35 35 35 36 35 35 37 40 41 41 41 42 42 42 43 43 42 42 42 41 40 40 40 40
1 1 5 8 10 13 13 12 14 15 13 13 14 13 14 16 17 13 11 9 7 9 11 10 10 9 6 4 6 8 8 7 9 11 14 17 17 17 18 19 19 19 18 17 17 17 15 13 10 6 2 4 10 15 20 24 28 31 32 34 34 34 35 35 35 36 36 36 37 39 39 40 39 40 41 41 43 44 43 42 42 42 40 40 41 40
2 1 5 6 6 10 13 13 13 14 14 15 15 13 13 17 17 13 11 8 6 9 12 10 8 6 3 2 3 5 6 7 9 11 13 15 16 17 17 18 18 17 16 17 16 15 14 15 14 13 11 9 7 2 3 9 18 26 29 31 33 33 35 36 35 34 35 36 37 37 37 38 39 39 40 42 43 44 44 42 41 42 41 41 41 40
3 1 3 3 4 7 9 12 13 13 14 15 15 14 13 14 14 12 9 7 6 8 10 9 6 4 4 5 6 8 8 10 11 11 12 13 15 16 16 17 17 16 16 16 15 15 15 15 14 13 12 11 10 8 5 2 7 18 23 23 23 20 21 26 31 34 36 35 34 36 37 37 38 39 40 41 43 43 44 43 41 42 41 40 41 40
3 2 1 1 3 6 8 10 12 12 11 10 10 10 10 10 12 12 10 9 9 8 7 6 4 4 6 7 9 11 11 11 11 10 11 11 13 15 15 16 16 16 16 15 15 15 15 12 12 14 16 16 15 11 7 3 3 11 17 17 15 11 6 11 19 24 31 35 34 35 38 38 38 39 40 41 42 42 43 42 41 42 42 41 41 41
2 3 1 1 1 5 7 8 9 8 7 7 5 3 5 6 7 8 8 8 8 6 5 5 6 7 7 7 6 8 8 9 9 9 9 10 11 11 13 15 15 15 15 14 15 15 13 12 14 19 22 22 20 18 12 5 3 8 10 10 14 18 16 14 20 24 25 31 37 37 38 38 38 39 40 40 41 40 41 42 42 42 42 40 40 40
5 4 2 2 2 4 5 4 5 5 6 8 6 6 8 7 8 9 8 6 11 11 9 9 9 9 8 8 7 7 6 6 9 11 11 11 11 12 13 13 14 15 15 14 14 13 12 14 16 19 23 26 26 24 21 14 8 4 5 8 12 18 24 26 28 30 30 31 36 38 39 40 40 39 39 39 39 39 41 42 42 41 40 39 39 40
5 4 2 2 3 4 3 2 4 5 6 9 8 7 8 6 8 9 6 6 12 12 10 10 9 9 9 9 9 10 8 3 7 11 13 13 12 13 13 13 14 15 14 14 15 14 15 18 19 19 20 22 24 24 24 23 20 15 11 17 21 23 27 30 33 37 36 34 35 39 41 42 41 40 39 38 38 39 40 41 42 40 39 38 37 38
1 1 1 3 4 3 4 3 4 7 8 8 5 4 6 6 6 6 3 3 9 10 9 9 9 10 10 10 11 12 12 5 3 8 14 16 14 14 14 14 14 14 15 17 19 19 21 23 23 24 23 21 21 20 20 22 24 22 17 17 25 29 30 30 32 36 37 35 37 41 42 43 43 41 39 39 38 39 40 40 41 40 38 37 36 36
1 3 3 4 4 4 4 4 3 6 6 3 2 3 6 7 6 4 2 1 5 9 10 9 10 11 11 10 11 13 10 4 2 5 12 16 15 15 15 14 15 16 17 20 21 22 24 26 25 26 26 24 22 21 20 23 26 26 23 18 18 25 30 30 32 36 37 36 38 42 43 43 43 42 40 40 40 40 39 39 39 39 39 37 36 35
4 4 4 4 4 3 4 4 4 5 3 1 4 7 8 7 6 5 3 2 3 8 9 9 11 12 12 11 11 10 6 3 2 5 10 14 14 13 13 13 16 19 20 21 21 22 24 26 25 26 26 25 24 25 24 25 27 26 24 22 19 17 24 30 34 38 39 38 39 42 43 43 43 42 42 41 41 40 39 38 38 38 39 37 36 34
4 1 3 4 5 6 6 5 4 3 0 3 7 10 11 9 6 4 3 1 3 7 7 7 9 10 11 11 10 7 5 3 4 6 10 13 12 10 10 10 13 18 21 21 23 24 24 25 25 24 24 25 27 28 26 24 24 24 25 25 22 20 21 27 35 39 38 36 37 39 41 42 43 43 43 42 41 40 38 37 36 36 38 37 35 33
3 1 1 4 5 7 8 6 4 2 1 2 6 10 12 8 3 2 2 1 3 6 6 6 6 7 8 9 8 5 4 5 7 9 10 11 11 11 10 11 13 18 21 22 24 26 25 24 24 23 23 26 29 29 26 24 22 23 25 25 24 24 24 25 30 34 33 31 33 37 39 40 42 43 43 42 40 38 37 37 36 36 37 36 35 33
3 3 2 2 4 4 5 5 4 3 2 2 5 7 6 4 2 2 2 3 5 6 7 6 5 5 5 7 6 6 8 9 10 11 10 10 10 10 11 13 15 17 19 22 24 26 25 24 24 24 24 26 29 28 26 25 24 25 25 24 26 29 29 27 27 30 31 29 31 35 37 39 41 41 40 39 38 37 37 37 36 36 36 36 35 34
2 3 2 1 2 2 2 4 4 2 1 5 8 5 2 2 2 2 3 4 5 6 7 6 6 5 5 6 7 9 11 12 11 11 11 10 9 10 10 11 12 13 17 21 23 25 25 23 23 24 24 25 27 28 26 25 25 27 25 25 29 32 30 29 29 31 34 33 32 35 36 37 38 38 38 37 38 38 37 36 36 35 35 36 35 34
1 2 1 1 2 1 2 2 2 2 2 5 6 3 1 3 2 2 4 5 5 5 5 5 5 6 7 8 8 9 11 11 11 11 11 11 9 9 10 11 11 12 15 19 22 25 25 23 23 24 24 24 27 29 28 25 26 27 28 31 34 32 29 30 33 33 37 37 35 36 37 37 38 38 37 37 37 37 36 35 35 35 35 36 35 33
1 1 1 2 1 2 3 2 2 3 4 4 3 2 3 5 4 4 6 6 5 5 5 5 6 7 8 9 9 9 9 10 10 10 11 11 10 9 10 11 11 11 14 19 22 24 24 23 24 24 23 25 29 30 29 27 26 27 31 35 37 33 30 32 33 34 38 38 37 37 37 36 37 37 37 37 37 36 36 35 34 33 33 35 34 33
2 2 2 3 2 2 4 4 1 3 5 6 2 1 3 5 5 6 7 6 6 6 6 6 7 8 8 9 9 9 9 10 10 10 10 11 11 10 10 11 12 12 15 18 21 23 24 24 24 24 24 26 30 33 35 32 28 28 33 38 38 34 33 35 34 34 38 38 37 38 37 35 36 36 36 36 36 36 35 35 33 32 32 32 33 33
2 1 3 2 1 1 2 2 1 5 7 5 3 3 5 6 6 6 6 6 7 7 7 7 8 8 9 9 9 10 11 11 11 10 9 10 10 9 8 9 12 14 15 18 21 23 25 24 22 23 25 27 30 37 41 40 38 36 36 37 35 32 34 37 33 32 36 36 36 37 37 35 35 34 34 34 34 33 33 34 34 32 31 32 32 32
2 1 2 2 1 3 4 3 4 7 6 2 2 4 5 5 7 8 7 7 8 8 8 9 9 8 8 9 10 12 13 13 11 10 9 9 9 9 7 8 12 15 16 19 21 21 22 23 21 23 25 27 32 41 45 44 44 43 38 33 30 30 34 33 30 32 34 34 35 35 35 36 35 33 32 32 32 31 31 33 35 34 35 36 35 34
2 1 1 2 3 5 5 3 5 7 5 1 3 6 6 6 8 10 10 10 10 10 9 9 10 10 10 10 10 12 13 13 11 11 11 9 8 9 9 10 13 15 16 19 20 20 21 23 22 23 25 28 36 45 46 44 42 38 32 29 28 29 31 26 24 32 32 32 33 32 32 32 31 31 31 30 31 33 34 35 36 36 36 38 39 38
3 2 2 2 3 4 3 2 3 4 5 3 5 8 8 7 9 10 10 10 11 10 10 10 11 12 12 13 13 12 12 13 12 12 11 9 9 12 14 13 13 13 15 18 19 19 22 24 24 24 27 31 38 44 42 39 37 34 30 28 27 27 26 21 16 25 27 27 28 29 29 29 29 31 32 31 31 32 32 34 36 36 35 35 38 41
3 2 1 2 3 4 4 3 1 2 4 5 6 8 7 7 8 9 9 9 10 10 10 10 10 11 12 12 14 15 13 13 14 15 12 10 12 16 18 16 13 11 13 16 17 18 22 26 26 25 27 31 36 38 36 33 33 32 29 27 25 23 23 18 11 14 20 22 24 26 27 27 26 26 29 31 32 32 30 29 31 33 33 33 34 38
Wind_Direction
199 223 216 214 223 220 219 217 231 255 264 274 289 292 291 286 257 226 222 242 218 169 183 170 150 156 159 167 177 169 172 177 171 172 173 179 184 171 169 173 172 173 172 175 183 178 170 176 175 167 165 165 169 170 170 175 175 170 166 166 167 169 170 168 171 171 170 170 162 164 174 177 178 175 174 176 176 179 183 185 177 170 170 169 171 172
200 226 227 218 223 230 235 228 222 238 254 269 282 286 292 292 289 282 262 250 231 186 187 175 153 154 164 170 173 170 175 178 173 173 176 178 178 171 166 170 172 173 172 169 179 185 174 172 177 174 168 167 168 169 172 177 176 172 167 167 168 170 171 171 173 174 173 173 168 169 175 175 177 180 178 177 177 181 187 186 179 172 170 168 172 176
198 227 236 231 231 232 239 246 239 236 242 253 264 280 288 285 298 303 298 283 244 183 183 184 167 159 167 172 171 174 180 178 174 174 175 175 172 171 173 173 169 168 170 171 180 186 176 172 176 175 170 170 169 170 175 179 176 172 169 169 169 171 172 172 175 176 175 175 171 173 176 174 179 184 179 177 177 180 183 182 179 174 169 169 172 177
206 211 221 229 237 236 232 239 248 250 246 241 241 256 265 273 288 292 295 305 315 316 196 182 172 157 162 168 172 176 176 172 172 173 172 173 173 173 176 177 172 168 168 174 178 177 175 173 173 175 173 170 169 170 175 179 176 172 171 170 170 172 173 173 175 177 177 175 173 176 178 177 181 180 176 174 171 174 175 173 178 178 173 174 174 175
238 221 209 211 220 236 240 231 234 246 254 241 231 235 254 269 274 277 294 312 322 308 266 127 102 131 150 162 172 173 170 169 170 170 170 174 175 170 172 177 179 176 170 175 179 173 172 173 172 176 177 172 168 171 176 179 178 174 172 171 172 174 175 175 176 178 178 177 175 175 176 180 181 175 176 168 160 168 172 170 177 183 182 181 179 178
239 245 230 212 204 216 237 241 229 226 242 254 234 217 229 258 274 287 305 322 338 314 311 61 81 150 158 165 170 170 174 174 171 173 174 171 170 169 172 178 182 186 180 180 185 174 171 175 175 176 177 173 170 173 178 180 180 178 174 172 173 175 176 178 178 178 180 180 178 176 175 180 177 176 185 175 161 168 175 174 177 183 187 184 181 182
216 231 242 236 214 202 212 235 242 231 225 244 251 229 217 229 259 281 296 310 320 298 309 316 176 166 165 174 171 171 178 176 170 174 175 169 170 172 175 180 183 187 186 192 200 182 173 177 176 174 175 173 171 173 178 181 182 180 175 173 175 177 178 180 180 179 182 183 183 182 180 180 177 177 187 184 171 172 177 179 179 183 190 186 182 187
213 217 228 238 238 219 205 210 225 236 240 221 248 265 250 231 239 250 262 271 271 295 313 310 205 132 172 190 180 173 172 172 170 173 175 175 178 179 180 182 183 187 185 188 204 199 183 180 176 174 175 175 173 173 177 181 183 183 178 176 177 179 180 182 183 182 183 183 185 189 186 180 179 180 183 185 181 177 178 182 182 184 191 187 181 189
235 211 217 232 237 236 230 216 201 213 237 249 251 269 280 271 258 246 235 239 257 287 301 309 331 43 211 191 177 173 169 174 181 180 181 182 183 183 184 185 183 186 184 183 196 201 197 188 179 174 175 176 174 174 177 181 185 185 181 179 179 180 182 184 186 186 185 184 185 191 191 180 181 183 180 184 186 182 181 183 183 183 188 187 182 190
283 319 308 261 241 228 236 251 236 217 221 238 251 266 281 284 292 306 289 161 306 252 259 284 304 306 279 196 166 169 173 182 191 191 188 185 185 185 186 186 182 183 185 186 194 198 200 195 182 174 175 177 175 176 179 181 184 185 182 180 181 182 184 186 187 187 186 186 186 192 194 182 181 182 178 182 187 187 188 183 182 184 186 189 186 190
298 311 308 287 273 254 232 240 249 252 272 267 237 247 275 294 318 332 13 67 45 298 246 259 265 265 284 251 177 175 183 185 188 192 190 185 185 188 188 187 183 183 184 186 193 196 199 194 181 174 175 178 178 177 178 181 184 186 183 182 183 184 185 187 188 188 188 187 187 191 195 185 181 181 178 182 185 186 189 184 184 188 189 191 189 188
286 290 294 305 318 311 277 256 233 234 270 312 301 91 352 321 325 322 358 67 73 272 266 258 254 252 257 251 232 216 191 181 181 185 184 185 187 188 190 189 184 184 182 182 188 193 194 188 177 175 176 178 179 177 177 181 184 186 186 184 184 185 185 186 188 189 189 188 188 190 195 190 183 180 180 185 186 182 186 187 187 190 191 193 192 188
266 253 247 280 302 316 298 298 292 232 217 278 358 55 39 308 269 261 268 121 185 237 269 270 259 246 239 240 252 272 235 178 180 187 182 183 187 187 189 190 185 182 182 183 186 188 188 185 179 179 179 179 180 179 179 182 184 185 186 185 186 186 186 187 187 189 190 190 189 191 194 193 186 183 183 188 188 183 186 188 186 190 192 194 193 192
266 237 210 222 233 203 238 261 289 249 179 176 156 123 167 211 229 237 202 189 216 223 233 246 257 249 245 239 230 255 266 206 181 187 185 183 185 186 186 187 187 183 182 185 186 187 186 184 184 183 180 179 181 181 180 182 184 184 186 187 188 188 187 187 187 189 190 191 191 191 193 194 190 187 187 190 191 187 188 189 188 190 192 192 193 196
323 279 226 286 253 170 197 218 232 269 199 175 181 171 191 191 184 230 201 176 203 223 220 223 228 207 213 227 204 222 252 252 197 180 186 188 184 184 183 181 186 187 186 187 187 189 189 184 183 184 181 180 182 183 182 183 184 184 185 187 189 190 189 188 188 188 190 192 193 192 192 194 193 190 190 192 194 192 191 192 192 193 194 194 195 199
329 308 336 337 321 193 192 206 217 283 304 197 185 192 216 219 179 221 254 245 236 279 260 220 228 213 202 216 205 199 221 245 241 184 182 191 183 177 179 180 185 188 188 189 188 189 190 186 184 183 183 182 182 183 183 184 185 185 186 187 190 191 190 190 189 189 191 192 193 194 193 194 194 193 192 193 195 197 197 197 196 197 199 201 203 205
349 296 319 331 324 345 357 278 200 194 263 322 239 208 214 223 221 209 279 291 282 274 264 231 265 261 210 213 220 205 199 222 243 207 179 184 179 174 179 182 186 189 187 188 188 187 187 186 185 185 185 184 184 185 186 186 187 187 187 187 189 191 192 192 192 191 192 193 193 195 195 195 195 195 195 195 196 199 200 202 203 202 203 205 208 210
5 290 299 332 336 351 352 327 234 159 186 251 272 269 234 208 229 214 320 295 293 276 260 257 276 265 208 218 219 215 208 210 229 225 179 174 176 179 183 184 186 189 188 187 186 184 184 185 185 186 187 186 186 187 188 188 188 188 188 188 189 190 192 194 193 193 194 194 195 196 197 197 198 197 198 198 197 199 201 203 206 207 206 207 210 213
356 306 298 7 357 344 343 337 355 128 187 206 254 293 355 142 249 322 298 241 269 284 274 276 286 281 239 229 205 210 221 207 209 217 183 171 178 182 183 186 188 188 187 186 184 182 184 186 186 187 187 187 186 188 189 189 189 189 189 189 189 191 193 194 194 194 196 197 197 198 198 199 200 200 201 200 200 200 201 203 206 208 209 209 210 214
353 327 282 14 6 340 330 339 359 16 241 323 321 314 55 128 196 246 255 225 162 235 266 285 285 280 265 254 225 224 232 213 204 211 187 173 178 181 182 187 190 188 185 184 182 183 184 185 186 188 188 188 187 187 188 189 189 190 190 189 189 191 192 193 194 195 197 199 200 201 200 201 202 202 203 203 203 202 203 205 206 207 209 210 210 212
358 356 288 334 354 339 314 329 355 360 1 357 336 324 345 354 245 238 263 248 191 194 234 267 276 275 265 260 288 309 274 228 208 199 191 179 174 176 182 186 187 186 185 184 182 182 184 184 185 187 189 189 188 187 187 189 190 191 192 191 190 190 191 193 195 196 197 200 202 203 203 202 203 204 205 205 205 205 206 207 208 208 209 210 210 210
356 346 313 320 339 336 312 318 329 335 333 325 310 305 308 312 303 279 265 255 230 180 196 212 246 271 265 306 4 3 351 286 215 176 178 189 169 171 179 183 184 184 184 185 183 182 183 183 183 185 187 188 187 186 187 189 191 192 193 193 190 189 191 193 195 196 197 200 202 204 205 204 204 204 205 206 207 208 209 209 210 211 210 210 212 212
344 311 317 314 312 308 304 308 311 313 321 320 305 292 286 288 297 275 271 276 261 348 336 208 211 259 268 13 12 6 11 356 281 189 196 209 168 169 176 179 180 181 183 184 182 182 185 182 180 183 186 188 188 186 187 190 193 194 194 193 191 190 192 194 196 197 197 199 202 205 206 205 205 205 205 206 207 208 210 211 212 212 212 212 213 213
340 343 356 325 311 304 301 300 297 305 335 329 309 324 329 319 327 326 322 319 268 290 348 77 228 260 286 24 16 12 24 17 356 334 296 296 137 162 177 181 178 178 182 184 181 181 184 180 178 181 185 188 188 187 188 190 192 193 194 192 190 191 193 194 196 198 197 199 202 204 206 206 206 205 204 205 207 208 210 211 212 212 213 213 213 213
347 18 22 344 326 320 319 323 316 336 359 337 311 336 345 340 345 1 16 347 321 355 35 71 235 267 342 14 12 16 24 23 12 5 3 7 27 57 115 188 180 178 179 179 180 181 180 178 177 179 182 185 185 185 188 191 191 192 194 193 191 191 192 193 195 198 199 200 202 203 205 206 206 205 205 205 206 208 209 210 211 212 212 212 213 212
357 357 13 2 323 301 317 350 352 343 344 324 316 325 333 346 354 5 16 344 324 355 21 76 244 298 349 358 1 11 14 17 18 14 14 17 24 30 22 24 153 175 179 179 179 178 176 178 178 179 180 182 183 183 185 189 191 192 194 195 193 191 190 192 194 198 200 200 200 202 205 206 206 206 206 205 206 206 207 208 209 210 211 212 212 212
20 330 304 267 259 267 289 296 298 314 315 309 316 317 318 334 345 353 1 331 321 326 326 151 299 325 343 348 353 4 5 9 18 16 15 16 21 29 26 31 55 79 109 164 181 179 176 177 178 180 182 183 185 184 184 188 192 194 195 196 197 195 192 192 194 198 200 200 200 201 204 206 207 207 206 206 206 206 206 207 208 209 210 211 211 212
10 308 292 273 265 267 277 285 291 298 296 295 304 306 308 315 322 329 314 306 332 319 296 11 352 329 332 340 351 3 359 360 11 15 18 17 18 28 32 33 39 43 44 37 21 167 179 180 180 181 181 184 185 184 185 189 193 196 197 197 198 198 196 196 197 199 200 199 199 201 204 206 207 208 207 206 206 206 206 207 207 208 210 210 211 211
328 288 297 292 289 288 286 287 291 292 288 288 291 296 305 308 310 311 296 297 325 298 286 336 338 320 329 342 348 355 352 355 359 5 22 24 15 22 32 34 34 36 40 38 28 24 26 41 181 185 184 185 186 185 186 190 192 196 199 199 200 200 200 199 200 202 202 200 200 202 204 206 206 207 207 206 205 206 206 207 207 207 208 209 210 211
49 302 298 296 297 297 297 296 295 294 291 286 284 292 302 300 295 292 284 287 298 282 284 308 314 312 334 345 337 341 346 1 2 2 21 27 18 19 27 31 32 31 31 33 34 31 21 14 19 25 51 171 185 187 190 193 194 195 197 199 200 201 201 201 202 203 203 203 203 203 203 204 206 206 206 205 205 205 205 206 206 206 207 208 209 209
112 313 300 301 297 293 294 293 288 288 288 284 283 287 291 290 288 285 284 289 289 281 287 297 301 307 309 270 318 350 3 26 26 13 19 26 22 19 24 27 26 24 24 25 28 28 19 11 15 21 22 20 24 64 176 198 199 199 199 200 203 204 202 202 203 205 207 207 205 202 202 203 204 205 205 205 205 205 205 205 205 205 206 206 207 207
153 245 295 295 283 276 284 289 288 288 287 283 280 276 273 276 282 284 284 291 290 288 296 303 314 335 336 337 352 357 12 37 40 23 16 22 22 20 22 25 21 18 17 18 20 22 18 8 3 6 7 6 15 37 53 70 193 197 198 199 202 206 208 209 209 208 210 211 208 202 201 203 204 204 205 206 205 204 204 204 204 204 204 205 205 205
178 225 259 261 272 275 279 290 301 302 290 272 265 267 269 273 281 284 281 284 291 295 300 310 349 23 16 24 12 351 4 35 43 31 20 15 16 19 20 19 18 14 12 12 13 13 11 4 353 351 354 357 3 11 20 29 179 186 187 189 188 185 219 263 253 235 219 211 207 203 202 202 203 205 205 206 206 205 204 203 204 204 204 204 204 203
248 247 242 151 206 274 283 293 305 301 281 270 276 326 335 322 325 318 302 310 332 348 358 8 27 24 18 34 21 344 358 38 50 47 39 21 12 15 18 17 13 9 7 8 9 6 4 1 352 343 342 343 345 347 349 340 211 185 182 189 190 186 198 241 267 269 251 221 206 203 203 202 203 205 206 206 206 204 204 204 204 204 203 203 202 202
267 249 238 197 217 269 288 300 291 265 253 270 296 17 10 354 8 351 321 353 21 18 19 23 24 20 12 8 354 333 341 37 55 48 39 33 23 12 12 14 9 3 2 1 359 358 360 359 352 342 335 334 334 337 339 333 316 282 233 226 212 202 207 214 220 232 242 231 210 202 201 202 203 205 206 206 205 205 205 205 205 205 203 202 202 202
278 265 229 211 237 265 260 223 238 260 277 279 292 6 14 360 15 358 331 32 38 22 16 14 5 7 10 360 346 329 316 344 69 46 26 26 29 18 10 10 6 1 358 355 350 351 356 352 343 336 331 329 330 331 332 331 328 324 288 246 229 216 214 215 213 214 223 227 214 202 200 201 202 204 205 205 204 205 206 206 206 205 204 203 203 203
339 297 242 229 215 225 244 234 244 276 291 283 279 3 357 336 6 7 319 34 36 21 11 3 354 359 4 360 347 328 311 303 87 43 13 9 15 17 11 5 3 358 352 349 347 346 348 344 337 334 331 329 330 330 331 330 327 326 313 266 233 216 209 212 217 216 219 223 214 203 200 201 201 202 203 203 204 206 206 207 206 206 204 203 204 204
139 161 197 241 219 203 236 254 257 263 270 266 263 326 320 313 341 1 291 274 34 19 6 359 355 355 357 360 349 329 315 309 80 30 5 358 1 10 7 358 357 356 349 346 346 344 342 339 337 334 331 329 332 333 335 334 328 323 319 300 253 223 210 209 218 221 221 220 213 204 201 201 200 201 201 202 204 206 206 207 206 206 205 205 204 204
279 190 174 222 232 212 216 229 240 242 241 331 324 318 317 317 332 339 298 253 18 5 0 3 357 351 353 356 348 341 344 357 4 4 356 348 351 4 2 351 348 349 346 344 344 340 337 336 335 333 331 330 332 334 335 334 329 318 307 303 293 258 226 215 217 221 222 219 212 205 202 200 199 200 200 202 204 205 205 206 206 206 206 206 206 206
303 210 160 203 226 226 223 232 244 232 160 15 342 323 318 319 323 311 268 258 357 346 350 3 355 346 349 349 344 354 14 357 324 335 340 337 340 351 355 349 343 342 343 343 341 337 335 335 334 332 330 329 329 331 332 330 323 311 299 296 299 289 259 233 222 219 220 219 212 206 204 201 200 200 200 202 203 204 205 205 205 205 206 207 207 207
333 342 218 222 227 224 221 230 242 222 185 355 332 313 307 307 292 237 240 284 315 317 327 346 345 340 345 345 342 346 350 331 320 324 330 332 332 333 341 347 342 340 341 341 337 335 335 334 333 330 327 327 327 327 329 328 317 305 302 300 294 287 279 263 239 225 220 217 211 206 204 202 201 200 201 202 201 201 203 205 205 205 205 206 207 207
346 344 305 260 249 230 212 223 243 235 217 287 308 305 308 308 249 227 282 276 275 303 325 330 331 336 337 334 329 321 319 321 321 319 322 329 328 326 334 342 340 338 340 339 336 335 334 331 330 328 325 326 327 325 325 324 315 304 301 298 290 284 283 281 263 239 225 216 208 205 205 203 202 201 200 200 199 199 201 204 204 204 204 204 206 207
317 323 324 300 284 271 211 212 227 227 286 323 322 327 360 353 281 273 297 287 290 318 330 323 325 334 328 319 318 315 314 316 315 314 318 322 323 322 326 331 331 331 336 337 334 332 330 327 327 327 325 325 326 323 321 318 311 305 300 291 287 287 285 285 277 252 229 217 210 206 204 203 202 200 199 199 198 199 200 201 203 203 203 203 204 206
309 306 305 355 4 332 243 230 258 251 274 305 309 308 332 325 314 307 305 303 311 322 322 319 322 326 322 318 315 312 311 310 309 312 315 316 319 322 321 319 319 323 332 334 329 326 325 323 324 325 324 326 327 324 321 316 308 303 297 290 291 293 287 284 279 254 228 217 212 207 205 203 201 199 198 198 198 198 199 200 201 202 202 203 203 205
133 87 237 251 277 259 240 254 302 281 274 289 283 277 322 327 336 338 324 318 318 314 311 314 311 312 317 316 312 308 303 301 304 309 313 313 314 315 315 312 313 321 330 329 325 322 320 320 323 324 321 324 328 326 322 317 308 300 296 295 298 296 289 286 278 249 223 213 209 206 203 201 199 198 198 197 196 196 197 199 200 201 201 202 203 204
117 94 226 248 273 261 235 225 239 305 318 326 334 5 351 345 349 346 333 321 314 311 311 309 306 308 311 307 303 301 295 293 298 302 305 307 306 305 307 309 314 325 330 327 322 320 320 320 322 323 322 321 325 329 328 322 311 299 296 299 301 297 292 290 278 244 219 210 207 204 199 196 195 196 197 196 196 197 198 198 200 201 202 202 203 205
135 174 236 256 321 320 252 230 9 343 326 326 360 14 354 346 341 332 319 306 303 301 297 296 297 300 302 300 298 297 295 295 296 298 299 300 299 299 301 306 315 323 326 323 321 321 321 320 320 323 324 320 321 329 332 327 319 312 306 304 302 299 299 294 274 238 214 206 202 198 195 193 192 192 194 195 196 197 199 200 201 203 203 203 204 205
143 191 241 262 292 274 261 284 352 336 305 277 44 4 338 335 331 319 308 302 298 296 296 298 299 298 297 298 298 297 296 295 292 290 290 290 293 297 296 300 310 318 321 320 320 321 321 317 317 322 322 318 323 331 331 326 322 319 315 309 304 305 309 297 262 227 209 201 196 192 192 192 190 189 190 193 195 197 199 201 203 204 206 206 205 203
170 241 259 267 276 268 264 300 351 334 300 282 7 340 329 335 326 313 307 305 303 303 305 305 305 303 298 297 298 296 293 292 290 287 286 288 292 293 291 296 302 307 313 316 317 319 320 316 317 322 321 319 327 332 330 325 323 320 314 310 307 308 314 301 250 219 206 197 192 190 190 189 188 187 189 191 195 199 201 203 206 208 210 210 209 207
214 256 261 270 274 270 279 320 355 322 293 300 326 324 327 331 317 306 308 310 307 306 304 302 302 299 294 293 294 293 292 291 290 288 285 285 289 289 289 293 296 300 310 314 314 318 320 318 320 325 326 326 331 333 328 324 324 320 311 309 308 306 310 305 253 215 204 195 189 187 186 187 188 188 190 193 197 200 202 203 206 210 212 213 212 212
224 245 230 256 261 260 280 291 244 239 269 285 305 317 322 318 307 304 306 304 302 302 300 298 298 296 293 292 291 290 290 290 289 288 285 283 286 287 287 288 289 297 309 312 312 318 322 321 322 328 331 331 333 333 326 322 322 321 315 312 312 308 305 299 264 210 193 186 184 184 184 185 188 191 194 196 197 198 199 201 205 209 210 212 213 213